#timestamp,LO_Frequency,Hit 
1596542415.2,286047001.9,N
1596542435.1,286047002.2,N
1596542436.0,286047002.2,N
1596542455.8,286047002.6,N
1596542475.6,286047002.7,N
1596542495.5,286047002.6,N
1596542515.3,286047002.8,N
1596542535.1,286047002.8,N
1596542555.9,286047001.9,N
1596542575.7,286047001.6,N
1596542595.5,286047001.8,N
1596542615.4,286047001.6,N
1596542635.2,286047001.8,N
1596542655.0,286047001.8,N
1596542655.9,286047001.8,N
1596542675.8,286047004.4,P
1596542695.6,286047000.6,N
1596542715.5,286047001.1,N
1596542735.3,286047002.3,N
1596542755.1,286047000.8,N
1596542775.8,286046998.5,N
1596542795.7,286047000.5,N
1596542815.5,286047000.7,N
1596542835.3,286047000.4,N
1596542855.2,286046998.1,N
1596542875.0,286047002.7,N
1596542875.9,286047002.7,N
1596542895.7,286047001.1,N
1596542915.6,286047000.6,N
1596542935.4,286046999.9,N
1596542955.2,286047001.0,N
1596542975.1,286047002.5,N
1596542976.0,286047002.5,N
1596542995.8,286047002.7,N
1596543015.6,286046999.8,N
1596543035.5,286047002.7,N
1596543055.3,286047000.0,N
1596543075.1,286047000.8,N
1596543095.9,286047002.6,N
1596543115.7,286047002.4,N
1596543135.5,286047002.4,N
1596543155.4,286047002.5,N
1596543175.2,286046999.8,N
1596543195.0,286047001.9,N
1596543195.9,286047001.9,N
1596543215.8,286047002.8,N
1596543235.6,286047002.0,N
1596543255.4,286047002.7,N
1596543275.3,286046999.8,N
1596543295.1,286047002.5,N
1596543315.8,286047002.3,N
1596543335.7,286046999.8,N
1596543355.5,286047002.0,N
1596543375.3,286047002.5,N
1596543395.2,286047000.1,N
1596543415.9,286047001.8,N
1596543435.7,286047002.5,N
1596543455.6,286046999.7,N
1596543475.4,286047002.8,N
1596543495.2,286047001.8,N
1596543515.1,286047002.5,N
1596543516.0,286047002.5,N
1596543535.8,286047002.5,N
1596543555.6,286047002.6,N
1596543575.5,286047002.7,N
1596543595.3,286047001.5,N
1596543615.1,286047001.8,N
1596543635.8,286047001.6,N
1596543655.7,286047002.4,N
1596543675.5,286047004.3,P
1596543695.4,286047001.0,N
1596543715.2,286047000.4,N
1596543735.0,286046998.6,N
1596543735.9,286046998.6,N
1596543755.8,286047001.1,N
1596543775.6,286047001.0,N
1596543795.4,286047000.7,N
1596543815.2,286047000.5,N
1596543835.1,286047000.9,N
1596543836.0,286047000.9,N
1596543855.8,286047000.7,N
1596543875.6,286047000.7,N
1596543895.5,286047001.2,N
1596543915.3,286046998.5,N
1596543935.1,286046998.9,N
1596543955.9,286047000.7,N
1596543975.7,286046998.5,N
1596543995.5,286046998.9,N
1596544015.4,286047000.7,N
1596544035.2,286047000.8,N
1596544055.0,286047001.1,N
1596544055.9,286047001.1,N
1596544075.8,286047001.1,N
1596544095.6,286047000.3,N
1596544115.4,286046998.6,N
1596544135.3,286046999.8,N
1596544155.1,286047000.5,N
1596544175.8,286047001.2,N
1596544195.7,286047000.0,N
1596544215.5,286047001.0,N
1596544235.3,286047000.5,N
1596544255.2,286047000.1,N
1596544275.9,286046999.8,N
1596544295.7,286047002.8,P
1596544315.6,286046999.9,N
1596544335.4,286047000.6,N
1596544355.2,286047002.5,N
1596544375.1,286047002.0,N
1596544376.0,286047002.0,N
1596544395.8,286047002.4,N
1596544415.6,286047001.6,N
1596544435.5,286047002.6,N
1596544455.3,286047002.7,N
1596544475.1,286047002.6,N
1596544495.9,286047002.0,N
1596544515.7,286047001.3,N
1596544535.5,286047004.2,P
1596544555.4,286047000.0,N
1596544575.2,286047002.8,N
1596544595.0,286047002.8,N
1596544595.9,286047002.8,N
1596544615.8,286047002.8,N
1596544635.6,286047000.2,N
1596544655.4,286046998.1,N
1596544675.3,286047000.6,N
1596544695.1,286047001.0,N
1596544715.8,286047001.2,N
1596544735.7,286047000.9,N
1596544755.5,286046998.3,N
1596544775.3,286046998.2,N
1596544795.2,286047001.1,N
1596544815.9,286047000.5,N
1596544835.7,286046998.6,N
1596544855.6,286046998.7,N
1596544875.4,286046998.4,N
1596544895.2,286047000.8,N
1596544915.1,286047001.1,N
1596544916.0,286047001.1,N
1596544935.8,286047001.1,N
1596544955.6,286047000.7,N
1596544975.5,286046998.9,N
1596544995.3,286047001.2,N
1596545015.1,286046996.5,N
1596545035.9,286046998.4,N
1596545055.7,286046999.5,N
1596545075.5,286046998.6,N
1596545095.4,286046996.9,N
1596545115.2,286046999.5,N
1596545135.0,286046999.1,N
1596545135.9,286046999.1,N
1596545155.8,286046999.2,N
1596545175.6,286046996.6,N
1596545195.4,286046996.8,N
1596545215.3,286046999.6,N
1596545235.1,286046997.1,N
1596545236.0,286046997.1,N
1596545255.8,286046998.0,N
1596545275.7,286046997.7,N
1596545295.5,286046997.7,N
1596545315.3,286046997.6,N
1596545335.2,286046995.0,P
1596545355.9,286046996.9,N
1596545375.7,286046996.9,N
1596545395.6,286046998.3,N
1596545415.4,286046999.4,N
1596545435.2,286046999.2,N
1596545455.1,286046998.8,N
1596545456.0,286046998.8,N
1596545475.8,286046999.4,N
1596545495.6,286046996.9,N
1596545515.5,286046998.6,N
1596545535.3,286046999.1,N
1596545555.1,286046997.0,N
1596545575.8,286046998.4,N
1596545595.7,286046999.4,N
1596545615.5,286046996.5,N
1596545635.3,286046999.1,N
1596545655.2,286046999.4,N
1596545675.0,286046999.3,N
1596545675.9,286046999.3,N
1596545695.7,286046996.6,N
1596545715.6,286046996.6,N
1596545735.4,286046996.5,N
1596545755.2,286046996.5,N
1596545775.1,286046999.4,N
1596545776.0,286046999.4,N
1596545795.8,286046999.6,N
1596545815.6,286046999.5,N
1596545835.5,286046996.8,N
1596545855.3,286046997.1,N
1596545875.1,286046996.8,N
1596545895.9,286046997.5,N
1596545915.7,286046996.7,N
1596545935.5,286046999.2,N
1596545955.4,286046997.0,N
1596545975.2,286046997.3,N
1596545995.0,286046997.2,N
1596545995.9,286046997.2,N
